[[{"header":{"parameterUnit":"m.s-1","parameterCategory":2,"la1":30.2991,"la2":30.254,"lo1":-89.0895,"lo2":-89.0444,"dx":0.0017,"dy":0.0017,"nx":28,"ny":28,"refTime":"2022-12-24T09:00:00:Z","depth":"0","parameterNumber":2,"parameterNumberName":"U-component_of_CURRENTS"},"data":[0,0,0,0,0,0,0,0,0,0,0,0,0,0,0,0,0,0,0,0,0,0,0,0,0,0,0,0,0,0,0,0,0,0,0,0,0,0,0,0,0,0,0,0,0,0,0,0,0,0,0,0,0,0,0,0,0,0,0.3143,0.3144,0,0.3155,0.3155,0.3155,0.3161,0.3161,0.3161,0.3161,0.3162,0.3162,0.3162,0,0,0,0,0,0,0,0,0,0,0,0,0,0.3127,0.3127,0.3143,0.3144,0.3144,0.3155,0.3155,0.3155,0.3161,0.3161,0.3161,0.3162,0.3162,0.3162,0.3162,0,0,0,0,0,0,0,0,0,0,0,0,0,0.3133,0.3127,0.3143,0.3151,0.3152,0.3155,0.3155,0.3155,0.316,0.3161,0.3161,0.3162,0.3162,0.3162,0.3162,0.3151,0,0,0.316,0.316,0,0,0,0,0,0,0,0,0.3133,0.3133,0.3149,0.315,0.3151,0.3159,0.315,0.3154,0.316,0.3154,0.3161,0.3162,0.3162,0.3162,0.3159,0.3151,0.3151,0.316,0.316,0.316,0.316,0,0,0,0,0,0,0,0.3132,0.3133,0.3145,0.315,0.3151,0.3154,0.3155,0.315,0.3153,0.3154,0.3156,0.3162,0.3162,0.3159,0.3159,0.3151,0.316,0.316,0.316,0.316,0.3164,0.3164,0,0,0,0,0,0,0.3137,0.3132,0.3144,0.3145,0.3146,0.3154,0.3155,0.3154,0.3153,0.3154,0.3161,0.3162,0.3159,0.3159,0.3159,0.3175,0.316,0.316,0.3159,0.3164,0.3164,0.3164,0,0,0,0,0,0,0.3136,0.3137,0.3144,0.3142,0.3144,0.3154,0.3153,0.3154,0.3156,0.3159,0.316,0.3164,0.316,0.3159,0.3168,0.3174,0.316,0.3159,0.3163,0.3164,0.3164,0.319,0,0,0,0,0,0,0.3135,0.3137,0.3141,0.3142,0.3144,0.3158,0.3153,0.3154,0.3161,0.3162,0.3161,0.3161,0.316,0.3169,0.3168,0.3174,0.3159,0.3163,0.3164,0.3164,0.3188,0.3191,0.3193,0,0,0,0,0,0.3134,0.313,0.314,0.3142,0.3148,0.3159,0.3161,0.3167,0.316,0.3168,0.3168,0.3161,0.3172,0.3169,0.3167,0.3173,0.3163,0.3163,0.3164,0.3187,0.3191,0.3193,0,0,0,0,0,0,0.311,0.3131,0.3142,0.314,0.3159,0.3162,0.3163,0.3168,0.3172,0.3171,0.3166,0.3167,0.3179,0.3171,0.3167,0.3176,0.3165,0.3166,0.3183,0.3186,0.3189,0.3202,0.3159,0,0,0,0,0,0.3112,0.3119,0.3141,0.3139,0.3147,0.3156,0.3161,0.3172,0.3175,0.3177,0.3176,0.3174,0.3179,0.3179,0.3183,0.3183,0.3192,0.3186,0.3189,0.3191,0.3201,0.3223,0.3228,0.3167,0.3167,0.3167,0,0,0.3096,0.3112,0.3113,0.3137,0.3143,0.3157,0.3159,0.317,0.3185,0.3176,0.3184,0.3186,0.3183,0.3192,0.3195,0.3186,0.3212,0.3192,0.3193,0.3203,0.3224,0.323,0.3236,0.3167,0.3167,0.3167,0,0,0.3075,0.3088,0.3093,0.3114,0.3144,0.3155,0.3162,0.3176,0.3188,0.3196,0.3201,0.321,0.3199,0.3213,0.3213,0.3229,0.3228,0.3223,0.3242,0.3263,0.3268,0.3273,0.3291,0.3297,0.3219,0.3219,0.3219,0,0.3063,0.3072,0.3095,0.3112,0.3128,0.3154,0.3167,0.3184,0.3202,0.3215,0.3201,0.3211,0.321,0.3235,0.3243,0.3235,0.3246,0.3231,0.3267,0.3272,0.3277,0.3294,0.3301,0.3221,0.322,0.322,0.322,0,0.3054,0.3067,0.3067,0.3102,0.3123,0.3137,0.3173,0.3194,0.32,0.3217,0.3242,0.3244,0.3251,0.3251,0.3249,0.3286,0.3283,0.3272,0.3262,0.3285,0.3301,0.3307,0.3223,0.3222,0.3222,0.3221,0,0,0.3008,0.3056,0.3054,0.3073,0.3124,0.3134,0.317,0.321,0.3235,0.3247,0.3272,0.3281,0.3289,0.3292,0.3299,0.3317,0.3357,0.331,0.331,0.3332,0.3406,0.3355,0.3357,0.3354,0.3355,0.3356,0.3404,0,0.2997,0.302,0.3053,0.3072,0.3085,0.3135,0.3165,0.3208,0.324,0.3274,0.3294,0.3318,0.3305,0.3316,0.3332,0.3363,0.3376,0.3345,0.3378,0.3379,0.3333,0.3363,0.3215,0.3242,0.3411,0.3412,0.3412,0,0.2974,0.2999,0.3017,0.3066,0.3076,0.3099,0.3159,0.3195,0.3265,0.329,0.3325,0.3349,0.3396,0.3368,0.3423,0.3406,0.3408,0.3418,0.342,0.3369,0.3339,0.3246,0.3247,0.3207,0.3423,0.3422,0.3421,0,0.292,0.2965,0.2979,0.2997,0.306,0.3084,0.3122,0.3194,0.3231,0.3315,0.3331,0.3398,0.3419,0.3449,0.3475,0.3455,0.3528,0.3497,0.3449,0.3446,0.3325,0.3309,0.3294,0.3522,0.3522,0.3522,0.3521,0,0.2888,0.2894,0.2956,0.2963,0.2987,0.3049,0.3087,0.3145,0.3225,0.3256,0.3333,0.3364,0.3439,0.3486,0.3502,0.3507,0.3548,0.3465,0.3458,0.3329,0.3313,0.3276,0.3261,0.3523,0.3523,0.3523,0.3522,0,0.2814,0.2856,0.2874,0.2941,0.296,0.2976,0.3054,0.3078,0.317,0.3214,0.3241,0.3354,0.342,0.3485,0.3551,0.3525,0.3457,0.3534,0.3381,0.3355,0.3242,0.3234,0.3096,0.2998,0.3481,0.348,0.3479,0,0.2774,0.2779,0.2837,0.2839,0.2868,0.2906,0.2924,0.3033,0.3068,0.319,0.3198,0.3305,0.3348,0.3446,0.3466,0.35,0.3412,0.3353,0.3277,0.3228,0.3215,0.3103,0.3022,0.313,0.3126,0.3124,0.3121,0,0.2703,0.2727,0.2742,0.2752,0.2767,0.2784,0.2831,0.2853,0.2967,0.301,0.3093,0.3155,0.3269,0.3258,0.3316,0.3314,0.3199,0.3291,0.3275,0.2972,0.2813,0.2717,0.3119,0.3095,0.3098,0.31,0.3101,0.3102,0.2639,0.2628,0.2647,0.264,0.2652,0.2642,0.2619,0.2679,0.2713,0.2758,0.2918,0.2959,0.3054,0.3124,0.3109,0.3033,0.3021,0.2926,0.2933,0.2835,0.2689,0.3039,0.2985,0.2987,0.2989,0.299,0.2992,0,0.2533,0.2528,0.2527,0.2506,0.2462,0.2516,0.2525,0.2485,0.2464,0.2587,0.2647,0.2736,0.2727,0.2804,0.2807,0.271,0.2569,0.2636,0.2452,0.2399,0.2746,0.2682,0.2516,0.2516,0.2516,0.2516,0.2516,0.2516,0.2475,0.2425,0.2418,0.2312,0.2294,0.2208,0.2185,0.216,0.2221,0.225,0.2313,0.2423,0.2629,0.2685,0.2616,0.2536,0.2357,0.2214,0.2243,0.2525,0.2553,0.2579,0.2516,0.2318,0.2318,0.176,0.1756,0.1753]},{"header":{"parameterUnit":"m.s-1","parameterCategory":2,"la1":30.2991,"la2":30.254,"lo1":-89.0895,"lo2":-89.0444,"dx":0.0017,"dy":0.0017,"nx":28,"ny":28,"refTime":"2022-12-24T09:00:00:Z","depth":"0","parameterNumber":3,"parameterNumberName":"V-component_of_CURRENTS"},"data":[0,0,0,0,0,0,0,0,0,0,0,0,0,0,0,0,0,0,0,0,0,0,0,0,0,0,0,0,0,0,0,0,0,0,0,0,0,0,0,0,0,0,0,0,0,0,0,0,0,0,0,0,0,0,0,0,0,0,-0.0091,-0.0092,0,-0.0148,-0.0149,-0.015,-0.0194,-0.0195,-0.0195,-0.0196,-0.0297,-0.0299,-0.0301,0,0,0,0,0,0,0,0,0,0,0,0,0,-0.0062,-0.0062,-0.0091,-0.0092,-0.0092,-0.0148,-0.0149,-0.015,-0.0194,-0.0195,-0.0195,-0.0196,-0.0296,-0.0299,-0.0301,0,0,0,0,0,0,0,0,0,0,0,0,0,-0.0093,-0.0062,-0.0091,-0.0121,-0.0124,-0.0148,-0.0149,-0.015,-0.0194,-0.0195,-0.0195,-0.0196,-0.0295,-0.0298,-0.0302,-0.0311,0,0,-0.0312,-0.0314,0,0,0,0,0,0,0,0,-0.0091,-0.0094,-0.0116,-0.0119,-0.0123,-0.0165,-0.0176,-0.0206,-0.0194,-0.0168,-0.0196,-0.0196,-0.0256,-0.0262,-0.0272,-0.0316,-0.032,-0.0313,-0.0315,-0.0316,-0.0317,0,0,0,0,0,0,0,-0.0088,-0.0092,-0.0114,-0.0116,-0.0121,-0.0146,-0.0151,-0.0182,-0.0209,-0.017,-0.0174,-0.0179,-0.0258,-0.0268,-0.0275,-0.0322,-0.0313,-0.0316,-0.0318,-0.0319,-0.0369,-0.0368,0,0,0,0,0,0,-0.0078,-0.0089,-0.0112,-0.0116,-0.0107,-0.0146,-0.0151,-0.0151,-0.0208,-0.0217,-0.0179,-0.0181,-0.0262,-0.0271,-0.0278,-0.0276,-0.0316,-0.0319,-0.0321,-0.037,-0.0369,-0.0368,0,0,0,0,0,0,-0.0077,-0.0079,-0.011,-0.0104,-0.011,-0.0145,-0.0145,-0.0152,-0.0159,-0.0214,-0.0223,-0.0179,-0.0263,-0.0274,-0.03,-0.0281,-0.0321,-0.0324,-0.0371,-0.0369,-0.0368,-0.0282,0,0,0,0,0,0,-0.0076,-0.0078,-0.0073,-0.0103,-0.011,-0.0111,-0.0144,-0.0152,-0.0162,-0.0165,-0.0217,-0.0227,-0.0264,-0.0294,-0.0303,-0.0287,-0.0327,-0.0372,-0.037,-0.0369,-0.0286,-0.0278,-0.0272,0,0,0,0,0,-0.0074,-0.0057,-0.0072,-0.0075,-0.0101,-0.011,-0.0116,-0.0144,-0.0161,-0.0155,-0.0194,-0.0225,-0.0292,-0.0297,-0.0307,-0.0291,-0.0372,-0.037,-0.0369,-0.0289,-0.028,-0.0272,0,0,0,0,0,0,-0.0038,-0.0061,-0.0078,-0.0068,-0.0085,-0.0118,-0.0115,-0.0136,-0.0161,-0.0165,-0.022,-0.0232,-0.0251,-0.0281,-0.0285,-0.0301,-0.0335,-0.0336,-0.0271,-0.0263,-0.0256,-0.0227,-0.033,0,0,0,0,0,-0.0029,-0.0024,-0.0051,-0.0043,-0.0048,-0.0081,-0.0089,-0.0105,-0.0133,-0.0144,-0.0183,-0.022,-0.0252,-0.0265,-0.0301,-0.0306,-0.0329,-0.0302,-0.0294,-0.0288,-0.0272,-0.0289,-0.0281,-0.0362,-0.0362,-0.0362,0,0,-0.0014,-0.0025,-0.0024,-0.0036,-0.0052,-0.0048,-0.0087,-0.0088,-0.0081,-0.0152,-0.0156,-0.0202,-0.0251,-0.0262,-0.0271,-0.0282,-0.0278,-0.0286,-0.028,-0.0267,-0.0286,-0.0278,-0.0271,-0.0361,-0.0361,-0.0361,0,0,0.0024,0.001,0.0027,0.0017,0.0001,-0.0016,-0.0012,-0.0039,-0.0048,-0.0063,-0.011,-0.0138,-0.0188,-0.021,-0.0231,-0.0203,-0.0246,-0.0217,-0.015,-0.0166,-0.0159,-0.0154,-0.0174,-0.0171,-0.0204,-0.0204,-0.0204,0,0.004,0.0058,0.0031,0.0043,0.0045,0.0004,0.0026,0.0012,-0.002,-0.0016,-0.0053,-0.0114,-0.0161,-0.0162,-0.0156,-0.0185,-0.0204,-0.0178,-0.0155,-0.015,-0.0146,-0.0168,-0.0166,-0.02,-0.02,-0.0201,-0.0201,0,0.0087,0.01,0.0111,0.0112,0.0113,0.0125,0.0105,0.0109,0.0085,0.0064,0.005,-0.0016,-0.0047,-0.0068,-0.0108,-0.0092,-0.0119,-0.0151,-0.0174,-0.0132,-0.0159,-0.0158,-0.0194,-0.0195,-0.0197,-0.0198,0,0,0.0131,0.0142,0.0147,0.0166,0.0153,0.0165,0.0183,0.0194,0.022,0.0168,0.0191,0.0124,0.0085,0.006,0.0009,-0.0005,-0.0002,-0.0055,-0.0058,-0.0068,-0.0038,-0.0057,-0.0059,-0.0029,-0.0028,-0.0028,-0.0069,0,0.0176,0.0225,0.0216,0.0265,0.0289,0.0269,0.0293,0.0295,0.0283,0.0292,0.0231,0.0214,0.0135,0.0121,0.0096,0.0023,0.0005,0.0012,-0.0083,-0.0085,-0.0101,-0.0056,-0.006,-0.0097,-0.0069,-0.0069,-0.0069,0,0.0228,0.0256,0.0317,0.0356,0.0366,0.039,0.0437,0.0453,0.045,0.044,0.0413,0.0349,0.0315,0.0238,0.0147,0.0155,0.0071,0.0009,0.0005,-0.0038,-0.0102,-0.0135,-0.0097,-0.0241,-0.0068,-0.0068,-0.0068,0,0.0287,0.033,0.0389,0.0397,0.043,0.0468,0.0488,0.0503,0.0541,0.0536,0.0549,0.048,0.0457,0.0347,0.02,0.0177,0.01,0.0046,-0.0049,-0.0052,-0.0086,-0.0093,-0.019,-0.0012,-0.0012,-0.0012,-0.0011,0,0.0342,0.0388,0.0425,0.0457,0.0541,0.0536,0.0622,0.0635,0.0665,0.0717,0.0628,0.0652,0.0484,0.0404,0.0256,0.0117,0.0138,-0.0021,-0.0055,-0.0058,-0.0061,-0.0213,-0.0307,-0.0013,-0.0013,-0.0012,-0.0012,0,0.0397,0.0415,0.0489,0.0546,0.0573,0.0634,0.0713,0.0771,0.0783,0.085,0.0849,0.0796,0.0697,0.0517,0.0351,0.0204,-0.003,-0.0002,0.0006,-0.0027,-0.0252,-0.0341,-0.0476,-0.054,-0.0106,-0.0107,-0.0107,0,0.0429,0.0475,0.0563,0.0617,0.0649,0.0734,0.0796,0.0835,0.0902,0.0941,0.0985,0.0912,0.0877,0.0631,0.0366,0.0118,-0.0038,-0.0056,-0.0104,-0.0246,-0.0371,-0.0434,-0.0482,-0.0122,-0.0123,-0.0123,-0.0124,0,0.0498,0.053,0.0591,0.07,0.0781,0.0874,0.0966,0.1039,0.1084,0.1139,0.1196,0.1169,0.0932,0.07,0.0362,0.0172,-0.0162,-0.0073,-0.0221,-0.0383,-0.0455,-0.0539,-0.0121,-0.0128,-0.0127,-0.0127,-0.0127,-0.0127,0.0552,0.0607,0.0688,0.0792,0.0883,0.0999,0.1084,0.118,0.1295,0.1368,0.1347,0.133,0.0981,0.0532,0.0275,-0.0192,-0.02,-0.0345,-0.0438,-0.0485,-0.0554,-0.0139,-0.0186,-0.0185,-0.0185,-0.0185,-0.0185,0,0.0615,0.0675,0.0772,0.0892,0.0992,0.1032,0.1185,0.1269,0.1402,0.1465,0.1498,0.1311,0.0895,0.046,-0.0161,-0.0495,-0.0616,-0.0681,-0.0779,-0.0809,-0.044,-0.0446,-0.0548,-0.0548,-0.0548,-0.0547,-0.0547,-0.0547,0.065,0.0746,0.0792,0.0961,0.1043,0.1182,0.127,0.1391,0.1479,0.1549,0.1531,0.1477,0.1142,0.0068,-0.0682,-0.0863,-0.1074,-0.1134,-0.1236,-0.1001,-0.0977,-0.0954,-0.0981,-0.1193,-0.1194,-0.1554,-0.1558,-0.1561]}],[{"header":{"parameterUnit":"m.s-1","parameterCategory":2,"la1":30.2991,"la2":30.254,"lo1":-89.0895,"lo2":-89.0444,"dx":0.0017,"dy":0.0017,"nx":28,"ny":28,"refTime":"2022-12-24T09:00:00:Z","depth":"2","parameterNumber":2,"parameterNumberName":"U-component_of_CURRENTS"},"data":[0,0,0,0,0,0,0,0,0,0,0,0,0,0,0,0,0,0,0,0,0,0,0,0,0,0,0,0,0,0,0,0,0,0,0,0,0,0,0,0,0,0,0,0,0,0,0,0,0,0,0,0,0,0,0,0,0,0,0.271,0.2711,0,0.2735,0.2736,0.2736,0.2766,0.2767,0.2767,0.2768,0.2775,0.2775,0.2775,0,0,0,0,0,0,0,0,0,0,0,0,0,0.2696,0.2696,0.271,0.2711,0.2711,0.2735,0.2736,0.2736,0.2766,0.2767,0.2767,0.2768,0.2776,0.2775,0.2775,0,0,0,0,0,0,0,0,0,0,0,0,0,0.271,0.2696,0.271,0.2729,0.273,0.2735,0.2736,0.2736,0.2766,0.2767,0.2767,0.2768,0.2776,0.2775,0.2775,0.276,0,0,0.2774,0.2774,0,0,0,0,0,0,0,0,0.2709,0.2711,0.2726,0.2727,0.2729,0.2748,0.2733,0.2743,0.2766,0.2753,0.2768,0.2768,0.2764,0.2765,0.2769,0.276,0.2761,0.2774,0.2774,0.2774,0.2774,0,0,0,0,0,0,0,0.2708,0.271,0.2721,0.2726,0.2728,0.2738,0.2741,0.2736,0.2754,0.2754,0.2756,0.2758,0.2765,0.2769,0.2769,0.2761,0.2774,0.2774,0.2774,0.2774,0.2814,0.2816,0,0,0,0,0,0,0.2703,0.2709,0.272,0.2721,0.272,0.2738,0.2741,0.2742,0.2755,0.2758,0.2758,0.276,0.2769,0.2769,0.2769,0.2807,0.2774,0.2774,0.2773,0.2813,0.2815,0.2816,0,0,0,0,0,0,0.2703,0.2704,0.2719,0.2715,0.2718,0.2737,0.2738,0.2742,0.2763,0.2758,0.276,0.2777,0.277,0.277,0.2786,0.2806,0.2773,0.2773,0.2812,0.2814,0.2815,0.2847,0,0,0,0,0,0,0.2702,0.2704,0.2713,0.2715,0.2718,0.2735,0.2737,0.2742,0.2762,0.2765,0.2774,0.2775,0.277,0.2786,0.2785,0.2805,0.2773,0.281,0.2813,0.2815,0.2845,0.285,0.2855,0,0,0,0,0,0.2702,0.2706,0.2714,0.2716,0.2727,0.2736,0.2739,0.2755,0.2762,0.2776,0.2785,0.2776,0.2801,0.2787,0.2786,0.2805,0.2809,0.2812,0.2815,0.2842,0.2849,0.2855,0,0,0,0,0,0,0.27,0.2709,0.2718,0.2724,0.2738,0.2741,0.2756,0.2763,0.2781,0.2789,0.2784,0.2785,0.2809,0.2804,0.2788,0.2827,0.2806,0.2809,0.2828,0.2834,0.2839,0.2844,0.2773,0,0,0,0,0,0.2704,0.2709,0.2723,0.2726,0.2739,0.2751,0.2761,0.2771,0.2781,0.2791,0.2798,0.2808,0.2816,0.2823,0.2829,0.2843,0.2845,0.2859,0.2864,0.2868,0.2873,0.2895,0.2902,0.2825,0.2825,0.2825,0,0,0.27,0.2707,0.2709,0.2727,0.2741,0.2755,0.276,0.2779,0.2795,0.2786,0.2818,0.2824,0.2825,0.2847,0.2857,0.2846,0.2892,0.2872,0.2875,0.2878,0.2899,0.2906,0.2913,0.2827,0.2827,0.2827,0,0,0.2691,0.2709,0.2716,0.2732,0.2758,0.2767,0.2776,0.2797,0.282,0.2837,0.2846,0.2866,0.2871,0.2886,0.2888,0.2924,0.2918,0.2931,0.2959,0.298,0.2986,0.2992,0.3006,0.3013,0.2934,0.2934,0.2934,0,0.2691,0.27,0.272,0.2735,0.2751,0.2774,0.2791,0.2812,0.2835,0.2857,0.2852,0.2886,0.2887,0.2919,0.2938,0.2934,0.2945,0.2932,0.2986,0.2991,0.2996,0.301,0.3016,0.2936,0.2936,0.2935,0.2935,0,0.2691,0.2705,0.2713,0.2741,0.2762,0.2779,0.2813,0.2843,0.2864,0.288,0.2922,0.293,0.2952,0.2959,0.2955,0.3003,0.2999,0.2988,0.2967,0.3006,0.3018,0.3024,0.2939,0.2938,0.2937,0.2937,0,0,0.2664,0.2707,0.2708,0.2726,0.2771,0.2782,0.2827,0.2869,0.2902,0.2926,0.2965,0.2986,0.3003,0.301,0.3021,0.304,0.3084,0.3035,0.3036,0.3044,0.3135,0.3067,0.3067,0.3086,0.3087,0.3088,0.3129,0,0.2661,0.2683,0.2712,0.2736,0.2755,0.2801,0.2837,0.288,0.2921,0.2966,0.2992,0.303,0.302,0.3044,0.3062,0.3087,0.3103,0.3074,0.3101,0.3102,0.3032,0.3073,0.2831,0.2841,0.3135,0.3136,0.3137,0,0.2649,0.2668,0.2695,0.2742,0.2758,0.2782,0.2854,0.2892,0.2965,0.2999,0.3046,0.3074,0.3126,0.3103,0.3155,0.3141,0.3143,0.3147,0.3148,0.3078,0.3046,0.285,0.2841,0.3147,0.3146,0.3145,0.3145,0,0.2609,0.2652,0.2674,0.2689,0.2749,0.2784,0.2825,0.2902,0.2945,0.3037,0.3066,0.3131,0.3164,0.3188,0.3207,0.3192,0.3249,0.3224,0.316,0.3155,0.2949,0.2923,0.3248,0.3248,0.3248,0.3248,0.3247,0,0.2584,0.2597,0.266,0.2668,0.2705,0.2765,0.282,0.2878,0.2963,0.3,0.3083,0.3119,0.3188,0.3228,0.3233,0.3223,0.3272,0.3173,0.3164,0.2954,0.293,0.3193,0.3186,0.3249,0.3249,0.3248,0.3248,0,0.2528,0.2567,0.2592,0.2661,0.2685,0.2714,0.2803,0.2835,0.2933,0.2988,0.302,0.3128,0.3182,0.3232,0.328,0.3244,0.325,0.3228,0.2978,0.2938,0.3133,0.3128,0.3161,0.3159,0.3157,0.3156,0.3155,0,0.2499,0.2507,0.2573,0.2583,0.2617,0.2671,0.2698,0.2806,0.2845,0.2972,0.2984,0.3085,0.312,0.3181,0.3161,0.3165,0.3218,0.2919,0.2838,0.3138,0.3127,0.3124,0.3121,0.2579,0.2573,0.2568,0.2564,0,0.2444,0.2474,0.2493,0.2518,0.2546,0.2572,0.2631,0.2656,0.2769,0.2819,0.2892,0.2946,0.3019,0.2919,0.2936,0.2903,0.2904,0.2822,0.3202,0.2643,0.2594,0.2581,0.2596,0.2522,0.2526,0.2529,0.2532,0.2533,0.24,0.2397,0.2423,0.2432,0.2456,0.2455,0.2442,0.2501,0.2537,0.2577,0.2713,0.27,0.2729,0.2639,0.256,0.2503,0.2698,0.2555,0.2567,0.2585,0.2516,0.2466,0.2358,0.2361,0.2363,0.2366,0.2368,0,0.2318,0.2319,0.2328,0.2323,0.2292,0.2351,0.2365,0.2323,0.2304,0.2381,0.242,0.2236,0.2168,0.2201,0.2054,0.2055,0.2026,0.1959,0.1884,0.1929,0.1968,0.1864,0.1534,0.1531,0.1529,0.1526,0,0,0.2273,0.2237,0.2231,0.2151,0.2148,0.2078,0.2059,0.2019,0.2038,0.1988,0.1963,0.21,0.2162,0.1822,0.1773,0.1625,0.1769,0.1569,0.2244,0.2203,0.2238,0.2323,0.2216,0,0,0,0,0]},{"header":{"parameterUnit":"m.s-1","parameterCategory":2,"la1":30.2991,"la2":30.254,"lo1":-89.0895,"lo2":-89.0444,"dx":0.0017,"dy":0.0017,"nx":28,"ny":28,"refTime":"2022-12-24T09:00:00:Z","depth":"2","parameterNumber":3,"parameterNumberName":"V-component_of_CURRENTS"},"data":[0,0,0,0,0,0,0,0,0,0,0,0,0,0,0,0,0,0,0,0,0,0,0,0,0,0,0,0,0,0,0,0,0,0,0,0,0,0,0,0,0,0,0,0,0,0,0,0,0,0,0,0,0,0,0,0,0,0,0.0212,0.0212,0,0.0166,0.0165,0.0164,0.013,0.013,0.013,0.013,0.0051,0.0049,0.0047,0,0,0,0,0,0,0,0,0,0,0,0,0,0.022,0.022,0.0212,0.0212,0.0212,0.0166,0.0165,0.0164,0.013,0.013,0.013,0.013,0.0051,0.0049,0.0047,0,0,0,0,0,0,0,0,0,0,0,0,0,0.0198,0.022,0.0213,0.019,0.0188,0.0166,0.0165,0.0164,0.013,0.013,0.013,0.013,0.0052,0.0049,0.0046,0.0033,0,0,0.0037,0.0036,0,0,0,0,0,0,0,0,0.0199,0.0197,0.0194,0.0192,0.0189,0.0155,0.0138,0.0119,0.0131,0.0151,0.013,0.013,0.0084,0.0078,0.0068,0.0029,0.0026,0.0037,0.0035,0.0034,0.0033,0,0,0,0,0,0,0,0.0201,0.0199,0.0192,0.0194,0.0191,0.0164,0.0161,0.0134,0.0117,0.0149,0.0147,0.0144,0.0082,0.0071,0.0066,0.0024,0.0037,0.0034,0.0033,0.0031,-0.0029,-0.0029,0,0,0,0,0,0,0.0213,0.0201,0.0194,0.0191,0.0195,0.0165,0.0161,0.0165,0.0118,0.0112,0.0144,0.0143,0.0076,0.0069,0.0063,0.0054,0.0034,0.0031,0.003,-0.0029,-0.0029,-0.0029,0,0,0,0,0,0,0.0213,0.0213,0.0196,0.0195,0.0192,0.0166,0.0169,0.0164,0.0153,0.0115,0.0108,0.0139,0.0076,0.0067,0.0048,0.005,0.003,0.0027,-0.003,-0.0029,-0.0029,0.0029,0,0,0,0,0,0,0.0214,0.0213,0.0216,0.0197,0.0192,0.0194,0.017,0.0163,0.0153,0.015,0.0108,0.0101,0.0075,0.0053,0.0045,0.0046,0.0025,-0.003,-0.0029,-0.0029,0.0027,0.0031,0.0035,0,0,0,0,0,0.0214,0.0226,0.0217,0.0216,0.0199,0.0194,0.019,0.0169,0.0153,0.0156,0.0128,0.0102,0.0049,0.0051,0.0042,0.0041,-0.003,-0.003,-0.0029,0.0025,0.003,0.0035,0,0,0,0,0,0,0.0229,0.0223,0.0213,0.0221,0.0212,0.0189,0.0187,0.0172,0.0151,0.0146,0.0106,0.0097,0.0079,0.0053,0.0056,0.0024,0.0004,0.0002,0.0048,0.0053,0.0057,0.0084,0.0022,0,0,0,0,0,0.0235,0.0244,0.023,0.0238,0.0232,0.0208,0.0201,0.0191,0.0171,0.0161,0.013,0.0098,0.0073,0.0059,0.0032,0.0017,-0.0006,0.0009,0.0013,0.0017,0.0033,0.0002,0.0005,-0.0028,-0.0028,-0.0028,0,0,0.0241,0.0241,0.0244,0.0242,0.0228,0.0232,0.0203,0.0201,0.0206,0.0156,0.0145,0.011,0.0072,0.0056,0.0045,0.0036,0.0012,0.0017,0.0021,0.0035,0.0002,0.0006,0.0009,-0.0028,-0.0028,-0.0028,0,0,0.0267,0.0259,0.0275,0.0271,0.0263,0.0251,0.0253,0.0231,0.0222,0.021,0.0175,0.0148,0.0104,0.0083,0.0066,0.0076,0.0034,0.0058,0.0101,0.007,0.0073,0.0075,0.0045,0.0044,0.0061,0.0061,0.0061,0,0.0273,0.0295,0.0278,0.0291,0.0295,0.0263,0.0281,0.0268,0.0244,0.0243,0.0215,0.0156,0.012,0.0109,0.0111,0.0086,0.0061,0.0087,0.0077,0.0079,0.008,0.0048,0.0046,0.0064,0.0063,0.0063,0.0063,0,0.031,0.0324,0.0332,0.0341,0.0343,0.0353,0.0338,0.0336,0.0313,0.0295,0.0274,0.0221,0.0191,0.0167,0.0142,0.0133,0.0109,0.0085,0.0069,0.0087,0.0051,0.0048,0.0068,0.0067,0.0066,0.0065,0,0,0.0335,0.0355,0.036,0.0379,0.0373,0.0385,0.0394,0.0399,0.0413,0.0366,0.0373,0.0316,0.028,0.0259,0.0215,0.0186,0.0164,0.0145,0.0142,0.0123,0.0096,0.0072,0.0065,0.0136,0.0136,0.0136,0.0066,0,0.037,0.0416,0.0414,0.0456,0.0477,0.0462,0.0478,0.0477,0.046,0.0456,0.0397,0.0378,0.0318,0.0302,0.0264,0.0194,0.016,0.0185,0.0075,0.0072,0.0055,0.0063,0.0077,0.0016,0.0063,0.0062,0.0062,0,0.0409,0.0438,0.049,0.053,0.0537,0.0557,0.0588,0.06,0.0583,0.0568,0.0533,0.0478,0.0432,0.0373,0.0265,0.0283,0.02,0.0137,0.0132,0.0092,0.0043,0.0005,0.0008,0.0057,0.0057,0.0057,0.0058,0,0.0451,0.0494,0.0545,0.0556,0.0588,0.0616,0.0633,0.0635,0.0663,0.0641,0.0647,0.0569,0.0539,0.0427,0.0289,0.0278,0.0165,0.013,0.0028,0.0025,0.0008,0.0004,0.0054,0.0054,0.0054,0.0054,0.0054,0,0.0495,0.0534,0.0573,0.0602,0.0671,0.0671,0.0736,0.0741,0.0756,0.0792,0.0709,0.0715,0.0552,0.0461,0.0322,0.0171,0.0186,0.0044,0.0009,0.0027,0.0026,0.0039,0.0038,0.0052,0.0052,0.0053,0.0053,0,0.0534,0.0555,0.0619,0.0672,0.0696,0.0747,0.0814,0.0856,0.0859,0.0903,0.09,0.0831,0.0715,0.0539,0.0361,0.0227,0.0075,0.0014,0.0046,0.0016,-0.0055,-0.0052,-0.0101,-0.0102,-0.0104,-0.0104,-0.0105,0,0.0558,0.0598,0.0679,0.0725,0.0754,0.0827,0.0879,0.0909,0.096,0.0977,0.1006,0.0912,0.0857,0.0587,0.0339,0.0095,0.0066,-0.0056,-0.0076,-0.004,-0.0069,-0.0064,-0.006,-0.0082,-0.0082,-0.0083,-0.0083,0,0.0609,0.0638,0.0693,0.0789,0.0858,0.0941,0.1018,0.1075,0.1109,0.1146,0.1169,0.1125,0.0873,0.0634,0.0304,0.0136,-0.0016,-0.0073,-0.0042,-0.0041,-0.0026,-0.0053,-0.0049,-0.0087,-0.0086,-0.0086,-0.0086,-0.0086,0.0647,0.0694,0.0768,0.0859,0.094,0.1041,0.1113,0.1191,0.1281,0.1321,0.1283,0.1212,0.0945,0.0522,0.0244,-0.005,-0.0035,-0.0146,-0.0143,-0.014,-0.0121,-0.0109,-0.0182,-0.0182,-0.0182,-0.0182,-0.0182,0,0.0693,0.0747,0.0831,0.0938,0.1026,0.1066,0.1195,0.126,0.1363,0.138,0.1383,0.1119,0.0854,0.055,0.0118,-0.0137,-0.0155,-0.0223,-0.0184,-0.0179,-0.0174,-0.0156,-0.0227,-0.0228,-0.0229,-0.0229,0,0,0.0718,0.08,0.0842,0.0989,0.1065,0.1188,0.1265,0.1352,0.14,0.1417,0.1366,0.1274,0.0924,0.0603,0.0261,0.0019,-0.0025,-0.0036,0.0026,0.0117,0.0125,-0.0106,-0.0069,0,0,0,0,0]}],[{"header":{"parameterUnit":"m.s-1","parameterCategory":2,"la1":30.2991,"la2":30.254,"lo1":-89.0895,"lo2":-89.0444,"dx":0.0017,"dy":0.0017,"nx":28,"ny":28,"refTime":"2022-12-24T09:00:00:Z","depth":"4","parameterNumber":2,"parameterNumberName":"U-component_of_CURRENTS"},"data":[0,0,0,0,0,0,0,0,0,0,0,0,0,0,0,0,0,0,0,0,0,0,0,0,0,0,0,0,0,0,0,0,0,0,0,0,0,0,0,0,0,0,0,0,0,0,0,0,0,0,0,0,0,0,0,0,0,0,0.1567,0.1568,0,0.1601,0.1602,0.1602,0.1624,0.1624,0.1625,0.1625,0.1695,0.1696,0.1698,0,0,0,0,0,0,0,0,0,0,0,0,0,0.1518,0.1518,0.1567,0.1568,0.1569,0.1601,0.1602,0.1602,0.1624,0.1624,0.1625,0.1625,0.1694,0.1696,0.1698,0,0,0,0,0,0,0,0,0,0,0,0,0,0.1541,0.1519,0.1567,0.1587,0.1589,0.1601,0.1602,0.1602,0.1623,0.1624,0.1625,0.1626,0.1694,0.1696,0.1698,0.1696,0,0,0.1704,0.1705,0,0,0,0,0,0,0,0,0.1539,0.1542,0.1583,0.1585,0.1588,0.1613,0.161,0.1636,0.1623,0.1606,0.1625,0.1626,0.1673,0.1676,0.1675,0.1699,0.1702,0.1705,0.1706,0.1707,0.1707,0,0,0,0,0,0,0,0.1538,0.1541,0.1577,0.1584,0.1587,0.1593,0.1597,0.1615,0.1632,0.1608,0.161,0.162,0.1674,0.1673,0.1677,0.1703,0.1704,0.1706,0.1708,0.1708,0.1806,0.1808,0,0,0,0,0,0,0.1541,0.1539,0.1576,0.1578,0.1569,0.1593,0.1597,0.1601,0.1632,0.1638,0.162,0.1621,0.1669,0.1675,0.168,0.1757,0.1707,0.1709,0.171,0.1805,0.1807,0.1808,0,0,0,0,0,0,0.1539,0.1543,0.1575,0.1563,0.1568,0.1594,0.1597,0.1601,0.164,0.1641,0.1647,0.1659,0.167,0.1677,0.1721,0.1757,0.171,0.1711,0.1803,0.1806,0.1807,0.1861,0,0,0,0,0,0,0.1538,0.1542,0.156,0.1563,0.1569,0.1605,0.1597,0.1601,0.1644,0.1647,0.1676,0.1681,0.1671,0.1718,0.1723,0.1759,0.1713,0.1802,0.1804,0.1807,0.1857,0.1864,0.1871,0,0,0,0,0,0.1536,0.1547,0.1561,0.1567,0.1587,0.1607,0.1611,0.1628,0.1646,0.1666,0.1684,0.1682,0.1737,0.172,0.1726,0.1764,0.1801,0.1804,0.1807,0.1854,0.1863,0.187,0,0,0,0,0,0,0.1534,0.1551,0.1566,0.1583,0.1609,0.1613,0.1636,0.1654,0.1683,0.1698,0.1699,0.1705,0.1758,0.1754,0.1735,0.1799,0.177,0.1774,0.1804,0.1812,0.1819,0.1828,0.1715,0,0,0,0,0,0.1543,0.156,0.1579,0.16,0.1614,0.1636,0.1655,0.1671,0.1691,0.1707,0.1727,0.1748,0.1768,0.1786,0.1801,0.1837,0.1839,0.1865,0.1872,0.1878,0.189,0.1924,0.1935,0.1818,0.1818,0.1818,0,0,0.1549,0.1564,0.1575,0.1603,0.1623,0.1641,0.1649,0.1688,0.1712,0.171,0.176,0.178,0.1784,0.1821,0.1844,0.1826,0.1909,0.1881,0.1886,0.1895,0.1928,0.194,0.195,0.182,0.182,0.1819,0,0,0.1558,0.1585,0.16,0.1622,0.1664,0.1675,0.1698,0.173,0.1756,0.1798,0.1806,0.185,0.1877,0.1888,0.1893,0.1949,0.1946,0.1962,0.2001,0.2035,0.2045,0.2053,0.2058,0.2067,0.196,0.1961,0.1961,0,0.1571,0.1588,0.1611,0.1629,0.1656,0.1695,0.1721,0.1744,0.179,0.1825,0.1823,0.1896,0.1903,0.1952,0.1967,0.1966,0.1977,0.1969,0.2044,0.2052,0.2061,0.2063,0.2072,0.1964,0.1963,0.1963,0.1963,0,0.1578,0.1607,0.1621,0.1655,0.1685,0.172,0.1754,0.1803,0.1844,0.1869,0.1948,0.1961,0.2008,0.2015,0.2005,0.2076,0.2062,0.2051,0.2023,0.2076,0.2074,0.2083,0.1968,0.1967,0.1966,0.1965,0,0,0.1567,0.1617,0.1627,0.1652,0.1709,0.173,0.1788,0.1849,0.1901,0.195,0.2016,0.2054,0.2091,0.2101,0.2112,0.2135,0.2192,0.2124,0.2124,0.2127,0.2257,0.2109,0.2104,0.2203,0.2205,0.2207,0.2229,0,0.1575,0.161,0.164,0.1688,0.171,0.1772,0.1818,0.1883,0.1942,0.2012,0.2057,0.2119,0.2113,0.2154,0.2181,0.2198,0.222,0.2186,0.2208,0.2208,0.2069,0.2111,0.2213,0.2235,0.2237,0.2238,0.2239,0,0.1566,0.1596,0.1643,0.1711,0.1731,0.1773,0.1878,0.1927,0.2028,0.2078,0.216,0.2198,0.2267,0.2243,0.2304,0.2289,0.2286,0.2281,0.2282,0.2133,0.2076,0.2175,0.2254,0.2253,0.2252,0.2251,0.225,0,0.1533,0.1596,0.1641,0.1663,0.1742,0.18,0.186,0.1962,0.2019,0.2142,0.2198,0.228,0.2331,0.2357,0.2358,0.2349,0.2397,0.2376,0.2236,0.2225,0.2328,0.2319,0.2416,0.2416,0.2416,0.2416,0.2415,0,0.1508,0.1546,0.1637,0.1658,0.1729,0.1797,0.1891,0.1968,0.2077,0.214,0.2242,0.2292,0.2367,0.2399,0.2389,0.2332,0.2427,0.225,0.2227,0.2347,0.234,0.2333,0.2323,0.2416,0.2416,0.2416,0.2416,0,0.1456,0.1513,0.1569,0.1673,0.1713,0.1771,0.1901,0.1955,0.2078,0.2168,0.2213,0.2324,0.2364,0.2399,0.2428,0.2352,0.2322,0.2276,0.2396,0.2379,0.212,0.2113,0.2124,0.2119,0.2115,0.2112,0.2109,0,0.1426,0.1451,0.1571,0.1611,0.1668,0.1764,0.1821,0.1948,0.2004,0.216,0.2185,0.2279,0.2331,0.2251,0.2301,0.2266,0.2237,0.2203,0.2166,0.2116,0.2094,0.2093,0.2091,0.2102,0.2101,0.21,0.2099,0,0.1373,0.1435,0.1482,0.1566,0.1637,0.1698,0.1796,0.1821,0.1957,0.2079,0.2108,0.212,0.2153,0.2156,0.2142,0.2116,0.2217,0.2159,0.2167,0.2132,0.209,0.2071,0.2074,0.2085,0.2087,0.2088,0.2089,0,0.1344,0.1364,0.1438,0.1497,0.1578,0.1607,0.167,0.1722,0.1785,0.195,0.1949,0.2041,0.2135,0.2078,0.2066,0.2029,0.1996,0.1922,0.1942,0.1959,0.1891,0.1812,0.1706,0,0,0,0,0,0.13,0.1306,0.1357,0.1407,0.1481,0.1528,0.1633,0.1694,0.182,0.1793,0.1866,0.1886,0.1876,0.1921,0.1845,0.1986,0.2001,0.1889,0.1928,0.2004,0.2021,0.1955,0,0,0,0,0,0,0.1267,0.1311,0.1321,0.1317,0.1334,0.1397,0.1459,0.1546,0.1541,0.1674,0.1678,0.1772,0.1789,0.1895,0.1808,0.1819,0.1804,0.1945,0.194,0.1995,0.201,0.2024,0.1961,0,0,0,0,0]},{"header":{"parameterUnit":"m.s-1","parameterCategory":2,"la1":30.2991,"la2":30.254,"lo1":-89.0895,"lo2":-89.0444,"dx":0.0017,"dy":0.0017,"nx":28,"ny":28,"refTime":"2022-12-24T09:00:00:Z","depth":"4","parameterNumber":3,"parameterNumberName":"V-component_of_CURRENTS"},"data":[0,0,0,0,0,0,0,0,0,0,0,0,0,0,0,0,0,0,0,0,0,0,0,0,0,0,0,0,0,0,0,0,0,0,0,0,0,0,0,0,0,0,0,0,0,0,0,0,0,0,0,0,0,0,0,0,0,0,0.0318,0.0317,0,0.0309,0.0309,0.0309,0.0316,0.0316,0.0316,0.0317,0.0295,0.0295,0.0294,0,0,0,0,0,0,0,0,0,0,0,0,0,0.0303,0.0303,0.0318,0.0317,0.0317,0.0309,0.0309,0.0309,0.0316,0.0316,0.0316,0.0317,0.0296,0.0295,0.0294,0,0,0,0,0,0,0,0,0,0,0,0,0,0.0304,0.0303,0.0318,0.0319,0.0319,0.0309,0.0309,0.0309,0.0316,0.0316,0.0316,0.0317,0.0296,0.0295,0.0294,0.028,0,0,0.029,0.029,0,0,0,0,0,0,0,0,0.0304,0.0305,0.0319,0.0319,0.0319,0.0313,0.0296,0.0299,0.0316,0.0318,0.0317,0.0317,0.03,0.0298,0.0297,0.0279,0.0278,0.029,0.0289,0.0289,0.0289,0,0,0,0,0,0,0,0.0304,0.0305,0.0315,0.0319,0.0319,0.0308,0.0309,0.0297,0.0307,0.0318,0.0318,0.0316,0.03,0.0298,0.0297,0.0278,0.029,0.0289,0.0288,0.0288,0.026,0.026,0,0,0,0,0,0,0.0305,0.0305,0.0315,0.0315,0.0311,0.0308,0.0309,0.0315,0.0308,0.0307,0.0316,0.0316,0.03,0.0298,0.0296,0.0295,0.0289,0.0288,0.0287,0.026,0.026,0.026,0,0,0,0,0,0,0.0305,0.0307,0.0316,0.0308,0.0309,0.0308,0.0315,0.0315,0.032,0.0306,0.0305,0.0321,0.03,0.0297,0.0296,0.0294,0.0287,0.0286,0.026,0.026,0.026,0.0284,0,0,0,0,0,0,0.0305,0.0307,0.0314,0.0309,0.0309,0.0316,0.0315,0.0315,0.0317,0.0318,0.031,0.0308,0.03,0.0297,0.0294,0.0292,0.0285,0.026,0.026,0.026,0.0283,0.0285,0.0286,0,0,0,0,0,0.0304,0.0314,0.0315,0.0316,0.0319,0.0316,0.0316,0.0316,0.0317,0.0321,0.0319,0.0309,0.0294,0.0297,0.0293,0.0291,0.026,0.026,0.026,0.0283,0.0284,0.0286,0,0,0,0,0,0,0.031,0.0316,0.0316,0.0328,0.0324,0.0318,0.0321,0.0319,0.032,0.0323,0.0311,0.0309,0.0305,0.0295,0.0297,0.0282,0.0274,0.0273,0.0292,0.0294,0.0295,0.0299,0.0285,0,0,0,0,0,0.0314,0.0327,0.0323,0.0332,0.0332,0.0327,0.0327,0.0327,0.0324,0.0325,0.0319,0.031,0.03,0.0296,0.0286,0.0279,0.0251,0.0274,0.0275,0.0276,0.0276,0.0231,0.0229,0.026,0.026,0.026,0,0,0.0318,0.0323,0.0329,0.0334,0.0333,0.0338,0.0328,0.0332,0.0337,0.0322,0.0329,0.0315,0.03,0.0294,0.029,0.0286,0.0252,0.0276,0.0277,0.0277,0.0231,0.0228,0.0225,0.0259,0.026,0.026,0,0,0.0329,0.0336,0.0349,0.035,0.0351,0.0348,0.0351,0.0347,0.0349,0.035,0.0339,0.0325,0.0316,0.03,0.0291,0.0292,0.0261,0.029,0.0299,0.0256,0.0253,0.025,0.0208,0.0201,0.029,0.029,0.029,0,0.0332,0.0352,0.035,0.0361,0.0367,0.0355,0.0368,0.0364,0.0361,0.036,0.0357,0.033,0.0316,0.0299,0.0302,0.0294,0.0267,0.0296,0.0257,0.0254,0.025,0.0208,0.02,0.0291,0.0291,0.0291,0.0291,0,0.0351,0.0368,0.0374,0.0389,0.0393,0.0401,0.0397,0.0399,0.0397,0.0387,0.0373,0.0348,0.0332,0.0321,0.0314,0.0284,0.0272,0.0265,0.0254,0.0249,0.0205,0.0196,0.0293,0.0292,0.0292,0.0292,0,0,0.0358,0.0384,0.0388,0.0406,0.0411,0.0419,0.0426,0.0427,0.0432,0.0412,0.0408,0.0378,0.0358,0.0346,0.0324,0.0285,0.0236,0.027,0.0267,0.023,0.014,0.0134,0.0124,0.0223,0.0222,0.0221,0.0118,0,0.0375,0.0408,0.0415,0.0446,0.0463,0.0461,0.047,0.0468,0.0458,0.0449,0.0407,0.0396,0.0369,0.0363,0.0317,0.0263,0.0215,0.0265,0.015,0.0146,0.0142,0.0114,0.0217,0.0112,0.011,0.0108,0.0107,0,0.0394,0.0417,0.0454,0.0486,0.0493,0.0511,0.0528,0.0535,0.0511,0.0502,0.0469,0.0435,0.0383,0.0361,0.0245,0.028,0.0212,0.016,0.0155,0.0135,0.0124,0.0117,0.0091,0.0092,0.0093,0.0095,0.0096,0,0.0409,0.0446,0.0483,0.0494,0.0522,0.0544,0.0559,0.0553,0.0565,0.0536,0.0533,0.0458,0.0429,0.0331,0.0226,0.0235,0.0091,0.0089,0.0012,0.001,0.0037,0.0041,-0.0006,-0.0006,-0.0006,-0.0006,-0.0005,0,0.0426,0.0456,0.0499,0.0521,0.0567,0.0576,0.0615,0.0615,0.0614,0.0623,0.0566,0.0548,0.0421,0.0327,0.0226,0.0091,0.0085,0.0003,-0.002,0.0049,0.0056,0.003,0.0036,-0.001,-0.0009,-0.0008,-0.0007,0,0.0437,0.0462,0.051,0.0558,0.058,0.0616,0.0667,0.0683,0.0682,0.0691,0.0687,0.0609,0.049,0.035,0.0184,0.0098,-0.0033,-0.0083,-0.0002,-0.0018,-0.0086,-0.0078,-0.0178,-0.018,-0.0181,-0.0181,-0.0182,0,0.0443,0.0471,0.0544,0.058,0.0609,0.0664,0.0698,0.0719,0.0739,0.0728,0.073,0.0628,0.0557,0.0318,0.0171,-0.0043,-0.0069,-0.0143,-0.0115,-0.0093,-0.0106,-0.0096,-0.0087,-0.0184,-0.0184,-0.0184,-0.0184,0,0.0455,0.0487,0.0528,0.0604,0.0658,0.0715,0.0769,0.0788,0.0805,0.0804,0.0758,0.0638,0.05,0.0319,0.0147,-0.0001,-0.0097,-0.0154,-0.0152,-0.0127,-0.01,-0.011,-0.01,-0.0188,-0.0187,-0.0187,-0.0187,0,0.0466,0.0495,0.0555,0.0621,0.0689,0.0748,0.0776,0.0799,0.0819,0.0806,0.0787,0.0646,0.0564,0.0339,0.0186,0.0033,0.0,-0.0046,-0.0051,-0.0049,0.0022,0.0076,0.0014,0,0,0,0,0,0.0472,0.0506,0.0565,0.0637,0.0703,0.075,0.0812,0.0832,0.0849,0.082,0.0807,0.068,0.0456,0.0363,0.0209,0.0163,-0.0031,-0.0024,-0.0088,-0.0206,-0.0202,-0.0141,0,0,0,0,0,0,0.0473,0.0528,0.0559,0.0639,0.0691,0.0765,0.081,0.0824,0.0811,0.0806,0.069,0.0639,0.0422,0.0542,0.0205,0.016,0.0097,-0.0125,-0.0128,-0.0208,-0.0205,-0.0202,-0.0138,0,0,0,0,0]}]]